Location: Bemmer
(51.5498°N, 5.6249°E)
Time: 17:18:58
(UTC+00:00)

SJ 16-02 - Pass Details

Date: 03 March 2021
Orbit: 605 x 617 km, 75.0° (Epoch: 13 April)

Event Time Altitude Azimuth Distance (km) Brightness Sun altitude
Rises 19:32:59 0° 339° (NNW) 2,884 5.3 -21.0°
Reaches altitude 10° 19:35:16 10° 343° (NNW) 1,977 4.4 -21.4°
Enters shadow 19:39:32 57° 57° (ENE) 725 1.4 -22.0°
